BTI5111 EFTP-ULLI

Flight info

Callsign BTI5111
Flight time 0h 40m
Altitude 35000
Route NISVI Y361 NEPEK DCT OLEMA/K0857F350 L24 AKARU AKARU1A
Aircraft B736/M-SDE2E3FGHIRWXY/LB1

Departure

Time 2026-04-18 03:02
Airport Tampere-Pirkkala Airport (EFTP)

Arrival

Time 2026-04-18 03:43
Airport Pulkovo Airport (ULLI)
Time Latitude Longitude Altitude Speed Heading
2026-04-18 02:39 61.41991 23.61785 373 ft 0 kts 65°
2026-04-18 02:59 61.41991 23.61786 373 ft 0 kts 65°
2026-04-18 03:00 61.42000 23.61858 374 ft 9 kts 96°
2026-04-18 03:00 61.41962 23.61953 375 ft 9 kts 147°
2026-04-18 03:00 61.41909 23.62007 376 ft 9 kts 156°
2026-04-18 03:00 61.41831 23.62099 372 ft 18 kts 127°
2026-04-18 03:01 61.41852 23.62345 371 ft 18 kts 64°
2026-04-18 03:01 61.41931 23.62535 372 ft 18 kts 22°
2026-04-18 03:01 61.41922 23.62645 370 ft 2 kts 208°
2026-04-18 03:01 61.41916 23.62619 371 ft 15 kts 242°
2026-04-18 03:02 61.41734 23.61825 378 ft 104 kts 244°
2026-04-18 03:02 61.41327 23.60010 578 ft 157 kts 246°
2026-04-18 03:02 61.40904 23.58020 1613 ft 144 kts 245°
2026-04-18 03:02 61.40473 23.56167 2478 ft 145 kts 245°
2026-04-18 03:03 61.39983 23.54055 2854 ft 181 kts 246°
2026-04-18 03:03 61.39325 23.51506 3261 ft 213 kts 231°
2026-04-18 03:03 61.38073 23.49899 3962 ft 221 kts 188°
2026-04-18 03:03 61.36486 23.50371 4291 ft 249 kts 153°
2026-04-18 03:04 61.34905 23.52117 4951 ft 267 kts 149°
2026-04-18 03:04 61.33244 23.53958 5993 ft 273 kts 150°
2026-04-18 03:04 61.31539 23.55783 7039 ft 278 kts 152°
2026-04-18 03:04 61.29787 23.57613 8067 ft 283 kts 152°
2026-04-18 03:05 61.28001 23.59438 9039 ft 290 kts 152°
2026-04-18 03:05 61.26164 23.61284 9966 ft 296 kts 153°
2026-04-18 03:05 61.24282 23.63157 10800 ft 307 kts 153°
2026-04-18 03:05 61.22266 23.65154 11088 ft 337 kts 153°
2026-04-18 03:06 61.20079 23.67419 11307 ft 364 kts 147°
2026-04-18 03:06 61.18248 23.71053 11785 ft 375 kts 122°
2026-04-18 03:06 61.16966 23.75782 12569 ft 379 kts 115°
2026-04-18 03:06 61.15780 23.80696 13368 ft 384 kts 113°
2026-04-18 03:07 61.14613 23.85721 14141 ft 389 kts 112°
2026-04-18 03:07 61.13444 23.90813 14900 ft 394 kts 112°
2026-04-18 03:07 61.12256 23.95984 15598 ft 400 kts 112°
2026-04-18 03:07 61.11045 24.01222 16300 ft 405 kts 112°
2026-04-18 03:08 61.09818 24.06505 16980 ft 410 kts 112°
2026-04-18 03:08 61.08568 24.11858 17609 ft 416 kts 112°
2026-04-18 03:08 61.07297 24.17271 18245 ft 421 kts 112°
2026-04-18 03:08 61.06008 24.22737 18901 ft 425 kts 112°
2026-04-18 03:09 61.04705 24.28245 19535 ft 430 kts 112°
2026-04-18 03:09 61.03385 24.33805 20132 ft 434 kts 113°
2026-04-18 03:09 61.02049 24.39423 20732 ft 438 kts 113°
2026-04-18 03:09 61.00699 24.45080 21291 ft 442 kts 113°
2026-04-18 03:10 60.99330 24.50803 21858 ft 446 kts 113°
2026-04-18 03:10 60.97968 24.56482 22410 ft 450 kts 113°
2026-04-18 03:10 60.96571 24.62292 22924 ft 454 kts 113°
2026-04-18 03:10 60.95161 24.68142 23445 ft 458 kts 113°
2026-04-18 03:11 60.93735 24.74044 23915 ft 463 kts 113°
2026-04-18 03:11 60.92296 24.79983 24402 ft 466 kts 113°
2026-04-18 03:11 60.90840 24.85967 24899 ft 469 kts 113°
2026-04-18 03:11 60.89372 24.91988 25338 ft 474 kts 113°
2026-04-18 03:12 60.87887 24.98072 25778 ft 478 kts 113°
2026-04-18 03:12 60.86390 25.04187 26212 ft 481 kts 113°
2026-04-18 03:12 60.84877 25.10346 26648 ft 484 kts 113°
2026-04-18 03:12 60.83353 25.16536 27032 ft 488 kts 113°
2026-04-18 03:13 60.81809 25.22785 27403 ft 492 kts 113°
2026-04-18 03:13 60.80273 25.28986 27766 ft 495 kts 113°
2026-04-18 03:13 60.78706 25.35292 28138 ft 498 kts 113°
2026-04-18 03:13 60.77126 25.41631 28476 ft 502 kts 113°
2026-04-18 03:14 60.75529 25.48021 28765 ft 506 kts 113°
2026-04-18 03:14 60.73919 25.54445 29106 ft 508 kts 113°
2026-04-18 03:14 60.72303 25.60871 29547 ft 507 kts 113°
2026-04-18 03:14 60.70687 25.67273 30017 ft 507 kts 113°
2026-04-18 03:15 60.69066 25.73679 30457 ft 506 kts 113°
2026-04-18 03:15 60.67444 25.80071 30930 ft 505 kts 113°
2026-04-18 03:15 60.65851 25.86336 31414 ft 503 kts 113°
2026-04-18 03:15 60.64231 25.92687 31863 ft 502 kts 114°
2026-04-18 03:16 60.62617 25.99000 32286 ft 501 kts 114°
2026-04-18 03:16 60.61004 26.05288 32693 ft 500 kts 114°
2026-04-18 03:16 60.59392 26.11559 33059 ft 500 kts 114°
2026-04-18 03:16 60.57776 26.17822 33484 ft 498 kts 114°
2026-04-18 03:17 60.56166 26.24044 33890 ft 496 kts 114°
2026-04-18 03:17 60.54556 26.30248 34264 ft 495 kts 114°
2026-04-18 03:17 60.52951 26.36418 34650 ft 493 kts 114°
2026-04-18 03:17 60.51345 26.42579 35002 ft 493 kts 114°
2026-04-18 03:18 60.49757 26.48654 35269 ft 493 kts 114°
2026-04-18 03:18 60.48137 26.54836 35257 ft 496 kts 114°
2026-04-18 03:18 60.44898 26.67147 35278 ft 493 kts 115°
2026-04-18 03:19 60.41656 26.79380 35270 ft 492 kts 114°
2026-04-18 03:19 60.38412 26.91563 35264 ft 491 kts 115°
2026-04-18 03:20 60.35166 27.03694 35139 ft 492 kts 115°
2026-04-18 03:20 60.33544 27.09741 34334 ft 499 kts 115°
2026-04-18 03:20 60.31887 27.15891 33529 ft 497 kts 115°
2026-04-18 03:21 60.30228 27.22031 32610 ft 498 kts 114°
2026-04-18 03:21 60.28557 27.28201 31647 ft 500 kts 114°
2026-04-18 03:21 60.26877 27.34389 30615 ft 502 kts 114°
2026-04-18 03:21 60.25212 27.40589 29545 ft 504 kts 112°
2026-04-18 03:22 60.23906 27.47006 28452 ft 499 kts 102°
2026-04-18 03:22 60.23273 27.51524 27608 ft 492 kts 97°
2026-04-18 03:22 60.22692 27.60441 25951 ft 483 kts 87°
2026-04-18 03:22 60.22487 27.67174 24975 ft 481 kts 89°
2026-04-18 03:23 60.21984 27.73735 24737 ft 469 kts 97°
2026-04-18 03:23 60.21189 27.80136 23874 ft 476 kts 99°
2026-04-18 03:23 60.20333 27.86621 23022 ft 479 kts 99°
2026-04-18 03:23 60.19471 27.93057 22142 ft 474 kts 99°
2026-04-18 03:24 60.18630 27.99356 21270 ft 468 kts 99°
2026-04-18 03:24 60.17801 28.05643 20395 ft 462 kts 99°
2026-04-18 03:24 60.16992 28.11851 19533 ft 456 kts 99°
2026-04-18 03:24 60.16199 28.17972 18680 ft 450 kts 99°
2026-04-18 03:25 60.15419 28.24006 17837 ft 444 kts 99°
2026-04-18 03:25 60.14649 28.29945 17033 ft 437 kts 99°
2026-04-18 03:25 60.13889 28.35802 16311 ft 428 kts 99°
2026-04-18 03:25 60.13139 28.41562 15475 ft 424 kts 99°
2026-04-18 03:26 60.12395 28.47240 14647 ft 419 kts 100°
2026-04-18 03:26 60.11905 28.50956 14281 ft 412 kts 100°
2026-04-18 03:26 60.10933 28.58313 13192 ft 405 kts 101°
2026-04-18 03:26 60.10221 28.63683 12353 ft 391 kts 101°
2026-04-18 03:27 60.09533 28.68830 11619 ft 374 kts 101°
2026-04-18 03:27 60.09092 28.72125 11191 ft 364 kts 101°
2026-04-18 03:27 60.08253 28.78371 11031 ft 343 kts 101°
2026-04-18 03:27 60.07642 28.82923 10885 ft 335 kts 101°
2026-04-18 03:28 60.07043 28.87389 10746 ft 328 kts 101°
2026-04-18 03:28 60.06460 28.91713 10603 ft 314 kts 101°
2026-04-18 03:28 60.05900 28.95852 10473 ft 302 kts 101°
2026-04-18 03:28 60.05540 28.98503 10392 ft 294 kts 101°
2026-04-18 03:29 60.05012 29.02382 10271 ft 284 kts 101°
2026-04-18 03:29 60.04500 29.06139 10050 ft 277 kts 101°
2026-04-18 03:29 60.04159 29.08642 9862 ft 274 kts 101°
2026-04-18 03:30 60.02989 29.17205 9146 ft 269 kts 101°
2026-04-18 03:30 60.02501 29.20748 8851 ft 267 kts 101°
2026-04-18 03:30 60.02012 29.24310 8545 ft 264 kts 101°
2026-04-18 03:30 60.01524 29.27846 8266 ft 262 kts 101°
2026-04-18 03:31 60.01347 29.29126 8152 ft 261 kts 101°
2026-04-18 03:32 60.01275 29.29647 8106 ft 261 kts 101°
2026-04-18 03:33 60.00793 29.33123 7810 ft 258 kts 101°
2026-04-18 03:33 60.00315 29.36567 7509 ft 256 kts 101°
2026-04-18 03:33 59.99839 29.39983 7236 ft 254 kts 101°
2026-04-18 03:33 59.99365 29.43378 6953 ft 253 kts 101°
2026-04-18 03:34 59.98892 29.46743 6663 ft 250 kts 101°
2026-04-18 03:34 59.98425 29.50082 6383 ft 249 kts 101°
2026-04-18 03:34 59.97960 29.53399 6101 ft 247 kts 101°
2026-04-18 03:34 59.97496 29.56700 5831 ft 245 kts 101°
2026-04-18 03:35 59.97036 29.59972 5557 ft 243 kts 101°
2026-04-18 03:35 59.96578 29.63204 5284 ft 242 kts 101°
2026-04-18 03:35 59.96124 29.66420 5014 ft 240 kts 101°
2026-04-18 03:35 59.95677 29.69577 4733 ft 239 kts 101°
2026-04-18 03:36 59.95226 29.72760 4458 ft 237 kts 101°
2026-04-18 03:36 59.94775 29.75918 4104 ft 238 kts 102°
2026-04-18 03:36 59.94318 29.79122 3709 ft 239 kts 102°
2026-04-18 03:36 59.93853 29.82271 3434 ft 234 kts 107°
2026-04-18 03:37 59.92918 29.84851 3343 ft 232 kts 137°
2026-04-18 03:37 59.91563 29.86507 3304 ft 226 kts 149°
2026-04-18 03:37 59.90169 29.87796 3202 ft 215 kts 151°
2026-04-18 03:37 59.88843 29.89002 3116 ft 204 kts 150°
2026-04-18 03:38 59.87569 29.90183 3041 ft 203 kts 150°
2026-04-18 03:38 59.86308 29.91364 2842 ft 197 kts 150°
2026-04-18 03:38 59.85103 29.92487 2639 ft 186 kts 150°
2026-04-18 03:38 59.84115 29.93930 2493 ft 171 kts 112°
2026-04-18 03:39 59.83833 29.96113 2516 ft 167 kts 98°
2026-04-18 03:39 59.83462 29.98373 2326 ft 166 kts 105°
2026-04-18 03:39 59.83155 30.00485 2215 ft 155 kts 101°
2026-04-18 03:39 59.82875 30.02494 2058 ft 150 kts 102°
2026-04-18 03:40 59.82582 30.04510 1863 ft 153 kts 103°
2026-04-18 03:40 59.82277 30.06535 1664 ft 152 kts 103°
2026-04-18 03:40 59.81981 30.08510 1456 ft 148 kts 104°
2026-04-18 03:40 59.81700 30.10386 1278 ft 136 kts 104°
2026-04-18 03:41 59.81454 30.12137 1094 ft 130 kts 105°
2026-04-18 03:41 59.81185 30.13852 924 ft 130 kts 104°
2026-04-18 03:41 59.80903 30.15586 719 ft 133 kts 105°
2026-04-18 03:41 59.80643 30.17312 563 ft 131 kts 103°
2026-04-18 03:42 59.80400 30.19078 364 ft 134 kts 104°
2026-04-18 03:42 59.80138 30.20815 195 ft 131 kts 106°
2026-04-18 03:42 59.79883 30.22537 82 ft 127 kts 104°
2026-04-18 03:42 59.79673 30.23972 82 ft 83 kts 106°
2026-04-18 03:43 59.79543 30.24846 82 ft 53 kts 106°
2026-04-18 03:43 59.79482 30.25358 86 ft 28 kts 93°
2026-04-18 03:43 59.79510 30.25706 82 ft 24 kts 75°
2026-04-18 03:43 59.79538 30.25912 82 ft 13 kts 73°
2026-04-18 03:44 59.79606 30.26005 81 ft 13 kts 17°
2026-04-18 03:44 59.79686 30.26079 84 ft 13 kts 24°
2026-04-18 03:44 59.79768 30.26126 84 ft 12 kts 15°
2026-04-18 03:44 59.79849 30.26174 83 ft 12 kts 20°
2026-04-18 03:45 59.79880 30.26193 81 ft 0 kts 16°